EXPRESS-AT1

Last updated on Thu Nov 21 2024 00:02:42 GMT+0000 (Coordinated Universal Time)

1 39612U 14010A 24325.22549441 .00000080 00000+0 00000+0 0 9990 2 39612 0.0140 279.3114 0000327 270.9564 6.6521 1.00271165 39061
UTC large
Height (km)
Speed (km/s)
/
Latitude / Longitude
Inclination (degrees)
Orbital Period (minutes)
Azimuth
Elevation
Range (km)
Doppler Factor

Next 0 passes for location: London (51.5072 / 0.1276)

Sorry there are no passes over London.